Flag for U.S.A. Weather past 2 weeks in Salt Lake City, Utah, U.S.A.

Now
67 °F

Broken clouds.


Feels Like: 67 °F
Forecast: 56 / 85 °F
Wind: 15 mph from South

Location: Salt Lake City International Airport

Current Time: May 30, 2015 at 9:41:18 AM

Latest Report: May 30, 2015 at 8:53 AM


Visibility: 10 mi

Pressure: 29.97 "Hg

Humidity: 44%

Dew point: 44 °F

Location of Salt Lake CityLocation

Historic Weather in Salt Lake City — Graph

°F

Salt Lake City temperature yesterday

Maximum temperature yesterday: 76 °F (at 4:53 PM)
Minimum temperature yesterday: 52 °F (at 4:53 AM)
Average temperature yesterday: 65 °F

Past Weeks' High & Low Weather Summary

 TemperatureHumidityPressure
High76 °F (May 29, 4:53 PM)97% (May 17, 6:53 AM)30.10 "Hg (May 17, 6:53 AM)
Low44 °F (May 16, 3:53 AM)22% (May 29, 4:53 PM)29.63 "Hg (May 15, 4:53 PM)
Average57 °F66%29.89 "Hg
* Reported May 15 7:53 AM — May 30 7:53 AM, Salt Lake City, Weather by CustomWeather, © 2015

Note: Actual official high and low records may vary slightly from our data, if they occured in-between our weather recording intervals... More about our weather records

Advertising

Salt Lake City weather history for previous 24 hours

 ConditionsComfort  
Time TempWeatherWind HumidityBarometerVisibility
7:53 AM
Sat, May 30
64 °FBroken clouds.12 mph52%29.96 "Hg10 mi
6:53 AM58 °FPassing clouds.10 mph62%29.98 "Hg10 mi
5:53 AM58 °FPassing clouds.10 mph58%29.97 "Hg10 mi
4:53 AM58 °FPassing clouds.7 mph60%29.97 "Hg10 mi
3:53 AM60 °FPassing clouds.7 mph53%29.97 "Hg10 mi
2:53 AM59 °FPassing clouds.7 mph60%29.98 "Hg10 mi
1:53 AM59 °FPassing clouds.6 mph58%30.00 "Hg10 mi
12:53 AM61 °FPassing clouds.7 mph48%30.01 "Hg10 mi
11:53 PM
Fri, May 29
62 °FPassing clouds.8 mph44%30.00 "Hg10 mi
10:53 PM64 °FPassing clouds.3 mph50%30.00 "Hg10 mi
9:53 PM67 °FPassing clouds.5 mph49%29.99 "Hg10 mi
8:53 PM70 °FPartly sunny.7 mph39%29.98 "Hg10 mi
7:53 PM74 °FPartly sunny.6 mph33%29.98 "Hg10 mi
6:53 PM75 °FPartly sunny.6 mph32%29.99 "Hg10 mi
5:53 PM75 °FScattered clouds.9 mph30%30.00 "Hg10 mi
4:53 PM76 °FScattered clouds.8 mph22%30.01 "Hg10 mi
3:53 PM75 °FScattered clouds.8 mph26%30.02 "Hg10 mi
2:53 PM74 °FScattered clouds.9 mph31%30.03 "Hg10 mi
1:53 PM73 °FScattered clouds.9 mph34%30.06 "Hg10 mi
12:53 PM71 °FPassing clouds.6 mph35%30.08 "Hg10 mi
11:53 AM69 °FPassing clouds.No wind38%30.08 "Hg10 mi
10:53 AM67 °FPassing clouds.5 mph39%30.09 "Hg10 mi
9:53 AM65 °FPassing clouds.No wind42%30.09 "Hg10 mi
Weather by CustomWeather, © 2015

See weather overviewHow to use our weather pages